Location: Vibo Valentia
(38.6670°N, 16.1000°E)
Time: 15:03:57
(UTC+02:00)

STARLINK-1341 - Pass Details

Date: 30 May 2020
Orbit: 548 x 551 km, 53.0° (Epoch: 08 July)

Event Time Altitude Azimuth Distance (km) Brightness Sun altitude
Exits shadow 02:03:22 39° 353° (N) 821 4.8 -27.3°
Drops below altitude 10° 02:06:35 10° 38° (NE) 1,798 7.1 -27.1°
Sets 02:08:54 0° 45° (NE) 2,690 8.1 -27.0°
